Location: Arleux
(50.3632°N, 2.8721°E)
Time: 20:17:07
(UTC+00:00)

Meteor 1-25 Rocket - Pass Details

Date: 15 December 2019
Orbit: 838 x 890 km, 81.2° (Epoch: 26 January)

Event Time Altitude Azimuth Distance (km) Brightness Sun altitude
Exits shadow 05:09:26 49° 255° (WSW) 1,106 4.4 -23.0°
Maximum altitude 05:10:20 54° 288° (WNW) 1,045 4.3 -22.8°
Drops below altitude 10° 05:15:59 10° 5° (N) 2,535 6.6 -22.0°
Sets 05:18:31 0° 10° (N) 3,485 7.4 -21.6°
